Regional Weather Roundup
Issued by NWS

Home | Current Version | Previous Version | Text Only | Print | Product List | Glossary Off
Versions: 1 2 3 4 5 6 7 8 9 10 11 12 13 14 15 16 17 18 19 20 21 22 23 24 25 26 27 28 29 30 31 32 33 34 35 36 37 38 39 40 41 42 43 44 45 46 47 48 49 50

905
ASUS43 KLMK 091810
RWRKY
KENTUCKY REGIONAL WEATHER ROUNDUP
NATIONAL WEATHER SERVICE LOUISVILLE KY
100 PM EST FRI DEC 09 2016

NOTE "FAIR" INDICATES FEW OR NO CLOUDS BELOW 12,000 FEET
WITH NO SIGNIFICANT WEATHER AND/OR OBSTRUCTIONS TO VISIBILITY.

KYZ001>023-026-027-061>063-070>075-091900-
WESTERN AND SOUTH CENTRAL KENTUCKY

CITY           SKY/WX    TMP DP  RH WIND       PRES   REMARKS
PADUCAH        SUNNY     32  13  45 CALM      30.62F
HENDERSON      PTSUNNY   30  12  47 W5        30.61F WCI  25
OWENSBORO      CLOUDY    28  16  60 NW7       30.61F WCI  21
HOPKINSVILLE   SUNNY     30  16  54 W6        30.59F WCI  24
BOWLING GREEN  MOSUNNY   31  14  49 VRB5      30.59F WCI  26
GLASGOW        CLOUDY    30  16  56 NE3       30.56F
$$

KYZ024-025-028>034-038-045-046-053-091900-
NORTH CENTRAL KENTUCKY

CITY           SKY/WX    TMP DP  RH WIND       PRES   REMARKS
LOUISVILLE/SDF PTSUNNY   27  11  51 VRB6      30.57F WCI  20
LOUISVILLE/LOU CLOUDY    26  12  55 N3        30.58F
FORT KNOX      CLOUDY    26  13  60 VRB2      30.54F
$$

KYZ035>037-039>044-047>052-055>060-089>105-091900-
NORTHEAST KENTUCKY

CITY           SKY/WX    TMP DP  RH WIND       PRES   REMARKS
LEXINGTON      CLOUDY    24  12  60 NW8       30.55S WCI  15
COVINGTON      FLURRIES  24  14  65 W7        30.52F WCI  16
FRANKFORT      CLOUDY    24  12  60 NW6       30.55F WCI  17
$$

KYZ054-064>069-076>088-106>120-091900-
SOUTHEAST KENTUCKY

CITY           SKY/WX    TMP DP  RH WIND       PRES   REMARKS
JACKSON        LGT SNOW  23  15  71 CALM      30.49F
LONDON         CLOUDY    25  13  60 VRB5      30.52F WCI  19
SOMERSET       CLOUDY    27  14  59 NW5       30.56F WCI  21
MIDDLESBORO    CLOUDY    30  15  53 CALM      30.51F
MONTICELLO     CLOUDY    27  18  69 W6        30.56F WCI  20
$$





USA.gov is the U.S. government's official web portal to all federal, state and local government web resources and services.